Flag for Fiji Weather past 2 weeks in Lautoka, Fiji

Now
82 °F

Passing clouds.


Feels Like: 86 °F
Forecast: 77 / 84 °F
Wind: 12 mph from Northwest

Location: Nandi

Current Time: Oct 2, 2014 at 5:55:27 PM

Latest Report: Oct 2, 2014 at 5:00 PM


Visibility: N/A

Pressure: 29.83 "Hg

Humidity: 66%

Dew point: 70 °F

Location of LautokaLocation

Historic Weather in Lautoka — Graph

°F

Lautoka temperature yesterday

Maximum temperature yesterday: 77 °F (at 10:00 AM)
Minimum temperature yesterday: 70 °F (at 5:00 AM)
Average temperature yesterday: 74 °F

Past Weeks' High & Low Weather Summary

 TemperatureHumidityPressure
High95 °F (Sep 28, 12:00 PM)100% (Sep 20, 1:00 AM)30.04 "Hg (Sep 20, 1:00 AM)
Low66 °F (Sep 25, 5:00 AM)38% (Sep 23, 2:00 PM)29.77 "Hg (Sep 28, 1:00 PM)
Average78 °F73%29.92 "Hg
* Reported Sep 17 4:00 PM — Oct 2 4:00 PM, Lautoka, Weather by CustomWeather, © 2014

Note: Actual official high and low records may vary slightly from our data, if they occured in-between our weather recording intervals... More about our weather records

Advertising

Lautoka weather history for previous 24 hours

 ConditionsComfort  
Time TempWeatherWind HumidityBarometerVisibility
4:00 PM
Oct 2
84 °FPassing clouds.12 mph62%29.80 "HgN/A
3:00 PM82 °FPassing clouds.13 mph66%29.80 "HgN/A
2:00 PM84 °FPassing clouds.13 mph66%29.83 "HgN/A
1:00 PM82 °FPassing clouds.14 mph70%29.83 "HgN/A
12:00 PM81 °FPassing clouds.14 mph74%29.86 "HgN/A
11:00 AM82 °FPassing clouds.14 mph66%29.89 "HgN/A
10:00 AM82 °FPassing clouds.10 mph70%29.89 "HgN/A
9:00 AM82 °FPassing clouds.No wind66%29.89 "HgN/A
8:00 AM79 °FScattered clouds.No wind70%29.92 "HgN/A
7:00 AM75 °FScattered clouds.3 mph78%29.89 "HgN/A
6:00 AM72 °FScattered clouds.No wind88%29.86 "HgN/A
5:00 AM73 °FPassing clouds.3 mph83%29.86 "HgN/A
4:00 AM75 °FPartly cloudy.5 mph78%29.86 "HgN/A
3:00 AM75 °FPartly cloudy.5 mph78%29.86 "HgN/A
2:00 AM73 °FPartly cloudy.5 mph83%29.86 "HgN/A
1:00 AM75 °FPartly cloudy.3 mph74%29.89 "HgN/A
12:00 AM75 °FPassing clouds.6 mph74%29.89 "HgN/A
11:00 PM
Oct 1
73 °FPassing clouds.6 mph78%29.92 "HgN/A
10:00 PM73 °FPassing clouds.9 mph78%29.92 "HgN/A
9:00 PM73 °FPassing clouds.7 mph78%29.92 "HgN/A
8:00 PM75 °FPassing clouds.10 mph78%29.89 "HgN/A
7:00 PM73 °FPartly cloudy.8 mph83%29.89 "HgN/A
6:00 PM75 °FBroken clouds.8 mph78%29.86 "HgN/A
5:00 PM75 °FBroken clouds.10 mph78%29.86 "HgN/A
Weather by CustomWeather, © 2014

See weather overviewHow to use our weather pages